Location: Fort Worth, Tx
(32.7431°N, 97.3695°W)
Time: 09:15:27
(UTC-04:00)

Courier 1B - Pass Details

Date: 25 February 2024
Orbit: 962 x 1208 km, 28.3° (Epoch: 24 April)

Event Time Altitude Azimuth Distance (km) Brightness Sun altitude
Exits shadow 06:25:59 29° 228° (SW) 1,760 8.4 -21.0°
Maximum altitude 06:27:46 33° 200° (SSW) 1,636 8.5 -20.6°
Drops below altitude 10° 06:33:50 10° 139° (SE) 2,858 10.5 -19.4°
Sets 06:36:54 0° 130° (SE) 3,854 11.4 -18.7°
